Back to catalog

STARLINK-35408

AliveCommunicationsVLEO
NORAD 65859·PAYLOAD·🇺🇸 United States

Launched Oct 3, 2025 from Vandenberg Space Force Base

Loading…

Next Passes (next 24 hours)

TLE

FreshSource: CelesTrak SupGP

Epoch: Sep 14, 2026, 14:45 UTC

1 65859C 25223F   26257.61506944  .00041106  00000+0  12146-2 0  2578
2 65859  53.1575 133.2450 0001264  89.5072  98.2810 15.34366953    17

Track STARLINK-35408 in real time with AllMySat

Download on the App Store